Zurück zum Katalog

ARASENE

AktivWissenschaftHEO
NORAD 22654·PAYLOAD·🇫🇷 France

Gestartet May 12, 1993 von Guiana Space Centre

Loading…

Nächste Überflüge (nächste 24 Stunden)

TLE

AktuellSource: Space-Track

Epoche: Sep 13, 2026, 20:26 UTC

1 22654U 93031B   26256.85142911 -.00000141  00000-0  00000-0 0  9994
2 22654   5.4451  44.4735 2865660 342.9611 239.8389  1.42202680168682

Verfolge ARASENE in Echtzeit mit AllMySat

Download on the App Store